Simultaneous Nadir Overpasses (SNOs) Predictions

Prediction of SNOs over PacNW region [( 10.00, 139.50) to ( 22.70, 165.60)] between NOAA-19 and NPP Satellites:

Table of predicted SNOs over PacNW region for the next 30.0 days since TLE Epoch: 9/6/2013
Index Date (NOAA-19) Time (NOAA-19) NOAA-19 Lat,Lon Date (NPP) Time (NPP) NPP Lat,Lon Distance(km) Time Diff (sec)
1 09/09/2013 16:18:57 22.60, 144.21 09/09/2013 16:21:23 23.59, 139.85 459.37 146
2 09/10/2013 03:35:23 22.64, 147.65 09/10/2013 03:34:07 21.97, 144.28 354.32 76
3 09/22/2013 03:02:24 11.37, 157.91 09/22/2013 03:05:38 10.30, 153.39 508.07 194
4 09/22/2013 15:39:02 19.49, 153.72 09/22/2013 15:38:08 20.26, 150.11 387.49 54
5 09/23/2013 02:54:38 22.66, 157.92 09/23/2013 02:51:01 25.82, 154.39 501.89 217
6 10/04/2013 15:08:15 22.58, 162.05 10/04/2013 15:11:50 24.09, 157.40 503.60 215
7 10/05/2013</
